This is the latest recevied weather packets stored in our database for station/object WD7OO. If no packets are shown the sender has not sent any weather packets the latest 10 day(s).
| Time | Temp. | Humidity | Pressure | Rain* | Wind** | Luminosity | Snow |
|---|---|---|---|---|---|---|---|
| 1778005080 | 12.78° C | 58% | 1009.6 hPa | 0 mm | - | 433 W/m² | - |
| 1778004778 | 12.78° C | 60% | 1009.5 hPa | 0 mm | - | 404 W/m² | - |
| 1778004474 | 13.33° C | 62% | 1009.2 hPa | 0 mm | - | 440 W/m² | - |
| 1778004170 | 13.33° C | 60% | 1009.5 hPa | 0 mm | - | 567 W/m² | - |
| 1778003867 | 12.78° C | 60% | 1009.2 hPa | 0 mm | - | 557 W/m² | - |
| 1778003564 | 12.22° C | 62% | 1009.1 hPa | 0 mm | - | 675 W/m² | - |
| 1778003260 | 12.22° C | 67% | 1009.4 hPa | 0 mm | - | 399 W/m² | - |
| 1778002957 | 11.67° C | 65% | 1009.5 hPa | 0 mm | - | 334 W/m² | - |
| 1778002653 | 11.67° C | 67% | 1009.7 hPa | 0 mm | - | 303 W/m² | - |
| 1778002350 | 11.67° C | 64% | 1009.5 hPa | 0 mm | - | 317 W/m² | - |
| 1778002047 | 11.67° C | 64% | 1009.5 hPa | 0 mm | - | 435 W/m² | - |
| 1778001744 | 12.22° C | 67% | 1009.5 hPa | 0 mm | - | 389 W/m² | - |
| 1778001444 | 11.67° C | 64% | 1009.3 hPa | 0 mm | - | 449 W/m² | - |
| 1778001141 | 11.67° C | 68% | 1009.4 hPa | 0 mm | - | 427 W/m² | - |
| 1778000838 | 11.11° C | 69% | 1009.2 hPa | 0 mm | - | 396 W/m² | - |
| 1778000535 | 10.56° C | 71% | 1009.5 hPa | 0 mm | - | 380 W/m² | - |
| 1778000230 | 10.56° C | 75% | 1009.5 hPa | 0 mm | - | 337 W/m² | - |
| 1777999926 | 10.56° C | 70% | 1009.5 hPa | 0 mm | - | 308 W/m² | - |
| 1777999622 | 10.56° C | 70% | 1009.4 hPa | 0 mm | - | 437 W/m² | - |
| 1777999319 | 10° C | 76% | 1009.6 hPa | 0 mm | - | 491 W/m² | - |
| 1777999017 | 10° C | 72% | 1009.5 hPa | 0 mm | - | 395 W/m² | - |
| 1777998715 | 10.56° C | 74% | 1009.2 hPa | 0 mm | - | 501 W/m² | - |
| 1777998413 | 10° C | 74% | 1009.3 hPa | 0 mm | - | 348 W/m² | - |
| 1777998110 | 10° C | 74% | 1009.2 hPa | 0 mm | - | 534 W/m² | - |
| 1777997807 | 9.44° C | 79% | 1009.2 hPa | 0 mm | - | 457 W/m² | - |
* Rain latest hour (hover to see other rain measurements)
** Current wind speed in m/s (hover to see current wind gust speed)